Regional Weather Roundup
Issued by NWS Charleston, SC

Current Version | Previous Version | Text Only | Print | Product List | Glossary On
Versions: 1 2 3 4 5 6 7 8 9 10 11 12 13 14 15 16 17 18 19 20 21 22 23 24 25 26 27 28 29 30 31 32 33 34 35 36 37 38 39 40 41 42 43 44 45 46 47 48 49 50
000
ASUS42 KCHS 191938
RWRCHS

REGIONAL WEATHER ROUNDUP
NATIONAL WEATHER SERVICE CHARLESTON SC
300 PM EDT TUE SEP 19 2017

NOTE: "FAIR" INDICATES FEW OR NO CLOUDS BELOW 12,000 FEET WITH NO
SIGNIFICANT WEATHER AND/OR OBSTRUCTIONS TO VISIBILITY.

NOT ALL STATIONS ARE QUALITY CONTROLLED. USE DATA WITH CAUTION...
ESPECIALLY DEWPOINT OBSERVATIONS.

SCZ027-030-031-034>040-042>050-192000-
...SOUTHEAST SOUTH CAROLINA...

CITY           SKY/WX    TMP DP  RH WIND       PRES   REMARKS
N CHARLESTON   MOSUNNY   87  68  52 N10       29.95F HX  90
WATERFRONT PRK   N/A     86  66  51 VRB3      29.80F
JOHNS ISLAND   FAIR      88  68  51 W8        29.94F HX  91
PINOPOLIS        N/A     82  70  65 NW5       29.90F
MONCKS CORNER  FAIR      84  63  48 NW5       29.95F
SUMMERVILLE    FAIR      86  66  51 NW6       29.96F
BEAUFORT MCAS  MOSUNNY   89  69  51 MISG      29.95F HX  93
BEAUFORT ARPT  MOCLDY    88  68  51 NW7       29.94F HX  91
HILTON HEAD IS MOSUNNY   86  70  58 CALM      29.96F HX  90
WALTERBORO     PTCLDY    86  66  51 NW5       29.96F
ALLENDALE      NOT AVBL

...SOUTHERN MIDLANDS AND PEE DEE...

CITY           SKY/WX    TMP DP  RH WIND       PRES   REMARKS
GEORGETOWN     FAIR      84  66  54 N6        29.95F
KINGSTREE      FAIR      82  64  54 NW8       29.95F
ORANGEBURG     MOSUNNY   86  65  49 NW5       29.96F
BARNWELL       FAIR      88  70  55 CALM      29.95F HX  92
AIKEN          CLOUDY    82  64  54 N3        30.00F
MANNING        FAIR      86  55  35 CALM      29.95F
COLUMBIA       MOSUNNY   89  63  41 N6        29.96F HX  90
SUMTER         SUNNY     86  63  45 NW8       29.94F
FLORENCE       MOSUNNY   84  66  54 NW8       29.95F
MYRTLE BEACH   PTSUNNY   85  66  53 NW9       29.94F
N MYRTLE BEACH MOSUNNY   85  65  51 VRB7      29.92F

$$

GAZ063-065-086>088-099>101-113>116-118-119-134>141-150-192000-
...SOUTHEAST GEORGIA...

CITY           SKY/WX    TMP DP  RH WIND       PRES   REMARKS
SAVANNAH ARPT  PTSUNNY   89  65  44 W6        29.95F HX  91
HUNTER AAF     PTSUNNY   89  69  51 NW5       29.93F HX  92
FORT STEWART   MOSUNNY   88  66  46 W6        29.93F HX  90
STATESBORO     MOSUNNY   89  60  37 N3        29.95F
SYLVANIA       CLOUDY    88  71  57 CALM      29.96F HX  93
CLAXTON        FAIR      91  67  46 CALM      29.95F HX  94

...CSRA...CENTRAL AND FAR SOUTHEAST GEORGIA...

CITY           SKY/WX    TMP DP  RH WIND       PRES   REMARKS
THOMSON        PTSUNNY   88  64  44 N3        30.00F
AUGUSTA-BUSH   PTSUNNY   89  66  46 W5        29.95F HX  91
AUGUSTA-DANIEL CLOUDY    87  66  49 VRB3      29.97F
SWAINSBORO     FAIR      88  64  45 CALM      29.96F
VIDALIA        MOSUNNY   90  66  45 W6        29.95F HX  92
EASTMAN        FAIR      91  45  20 CALM      29.97F
HAZLEHURST     FAIR      91  44  19 CALM      29.94F
ALMA           MOSUNNY   91  64  40 VRB3      29.95F HX  92
WAYCROSS       MOSUNNY   90  61  37 CALM      29.94F
JESUP          NOT AVBL
BAXLEY         CLOUDY    88  63  42 W3        29.94F
BRUNSWICK      MOSUNNY   88  64  45 CALM      29.95F
SAINT SIMONS   PTSUNNY   84  69  60 E7        29.96F

$$

SCZ027-028-034-036>038-045-046-048>050-GAZ119-141-192000-
...LAKE AND SUPPLEMENTAL COASTAL OBSERVATIONS...

STATION/POSITION TIME  TEMP    WIND        PRES    WAVE   SWELL
                       AIR SEA DIR/SP/G            HT/PER HT/PER/DIR
                 (UTC) (F)     (DEG/KT/KT) (MB)    (FT/S) (FT/S/D)
WINYAH BAY       1845   83     330/  6     1014.0F
LAKE MURRAY      1830   81     200/  5/  6 1014.6F
ACE BASIN NERRS  1845   87     300/  2     1015.0S
FORT PULASKI     1900   85 79  290/  2/  4 1014.5
SAPELO ISLAND    1900   88        CALM     1014.0

$$

ANZ835-935-AMZ111-154-330-350-352-354-370-450-454-472-192000-
...C-MAN AND BUOY OBSERVATIONS...

STATION/POSITION TIME  TEMP    WIND        PRES    WAVE   SWELL
                       AIR SEA DIR/SP/G            HT/PER HT/PER/DIR
                 (UTC) (F)     (DEG/KT/KT) (MB)    (FT/S) (FT/S/D)
BUOY 41004       1910   78 82  320/  4/  6 1013.8
BUOY 41008       1850   81 83  150/  2/  4 1014.7F   3/10   3/ 60/10
FOLLY BEACH CMAN 1900   80     190/  7/  8 1015.0F
CAPERS NEARSHORE 1908   83 81  330/  6/ 12 1013.9F
FRIPP NEARSHORE  1908   80     150/  6/  8 1020.4F


STATION/POSITION TIME  TEMP    WIND        PRES    WAVE   SWELL
                       AIR SEA DIR/SP/G            HT/PER HT/PER/DIR
                 (UTC) (F)     (DEG/KT/KT) (MB)    (FT/S) (FT/S/D)
5E ST. MARYS GA  1830      85                N/A     3/12   2/ 80/12
FRYING PAN BUOY  1910   77 82  300/  8/ 10 1013.0
BUOY 41025       1850   74 75  310/ 23/ 29 1009.4S   9/11   7/ 70/11
CAPE LOOKOUT NC  1900   79     330/ 15/ 17 1011.4F
BUOY 41002       1850   80 80  310/ 16/ 17 1012.4F   9/10   7/ 30/10
BUOY 41010       1910      84  350/ 12/ 16 1014.0
ST AUGUSTINE FL  1900   80 83   60/  8/  9 1015.4F


$$



USA.gov is the U.S. government's official web portal to all federal, state and local government web resources and services.